FENGYUN 1C DEB, 31921

Orbit data source: Space-Track

FENGYUN 1C DEB, 31921 is space debris in SSO originally from a launch on Mon, 10 May 1999 UTC launched from the Taiyaun Space Center, China (TSC). Fengyun 1C debris stems from the Chinese weather satellite Fengyun-1C, which was intentionally destroyed by a Chinese anti-satellite missile in 2007. This event dramatically increased the amount of space debris, with thousands of trackable fragments posing hazards to satellites and human spaceflight. The Fengyun 1C debris cloud has become a focal point in discussions about space sustainability and the need for international regulations to prevent the creation of new debris.

Loading next visibility...
Identifier
31921, 1999-025CLY
Orbit
SSO
Country
Flag of CNCN / PRC
Related business
Manufacturer
Unknown
Mission
Spacecraft
Bus & Motor
Unknown
Mass
Unknown
Launch date (UTC)
1999-05-10 (27 years ago)
Launch vehicle
Unknown
Launch site
Taiyaun Space Center, China (TSC)
Object type
Payload
Rocket body
Debris
Shape & HBR
Unknown shape, 0.1 m
Radar Cross Section
Small (<0.1 m²)

Expand to show TLE details & history
Last TLE update: 1 day ago

TLE from 1 day ago
0 FENGYUN 1C DEB
1 31921U 99025CLY 26061.66714862  .00001959  00000-0  17888-2 0  9994
2 31921  99.3366 317.4177 0203165  53.9169 308.0608 13.75485339934058
Epoch: 2026-03-02T16:00Z
TLE epoch observation values (Epoch: 2026-03-02T16:00:41.640Z)
Latitude
-0.00007°
Longitude
-83.21306°
Altitude
892.518 km
Speed
7.451 km/s
True Right ascension
21h 09m 40s
True Declination
0° 00' 00"
Sunlit
Object was in daylight at epoch
Visualization orbit readout
Latitude
Unknown
Longitude
Unknown
Altitude
Unknown
Speed
Unknown
Apparent Right ascension
Unknown
Apparent Declination
Unknown
Sunlit
N/A
Visualization observer readout
Local Sidereal Time
06:12:08
Azimuth
Unknown
Elevation
Unknown
Doppler factor
Unknown
Orbital elements
Apogee altitude
1,126.625 km
Perigee altitude
827.756 km
Semi-major axis
7,355.328 km
Eccentricity
0.02032
Inclination
99.3366°
RAAN
317.4177°
Arg. of periapsis
53.9169°
True anomaly
306.19895°
Mean anomaly
308.0608°
Eccentric anomaly
307.13277°
Mean motion
3.44065 °/min
Orbital period
104.63 mins
BSTAR
0.0017888
Loading maneuver chart data...
Computing Atmospheric mass density...

Documentation

Showing up to 5 results
|